Date,TemperatureHighF,TemperatureAvgF,TemperatureLowF,DewpointHighF,DewpointAvgF,DewpointLowF,HumidityHigh,HumidityAvg,HumidityLow,PressureMaxIn,PressureMinIn,WindSpeedMaxMPH,WindSpeedAvgMPH,GustSpeedMaxMPH,PrecipitationSumIn
2013-1-1,33,28,19,32,22,13,98,80,61,0.00,40.00,9,3,19,1.65
2013-1-2,24,19,15,15,12,9,93,76,54,0.00,40.00,6,2,8,2.79
2013-1-3,31,22,13,22,14,8,90,73,45,0.00,40.00,14,4,19,0.55
2013-1-4,32,28,24,23,19,16,78,69,55,0.00,40.00,15,8,25,12.43
2013-1-5,38,29,18,28,22,15,92,74,59,0.00,40.00,12,4,17,2.24
2013-1-6,37,33,26,33,27,22,92,80,70,0.00,40.00,19,7,28,0.00
2013-1-7,36,31,27,26,24,23,87,78,61,0.00,40.00,10,4,13,1.69
2013-1-8,45,34,23,32,27,21,93,76,57,0.00,40.00,9,2,12,0.00
2013-1-9,48,40,33,40,34,28,90,77,65,0.00,40.00,14,5,17,0.00
2013-1-10,42,36,28,31,29,27,96,78,59,0.00,40.00,9,3,14,1.10
2013-1-11,61,51,41,54,46,31,97,83,65,0.00,40.00,15,6,24,5.04
2013-1-12,64,56,47,61,54,46,100,93,76,0.00,40.00,12,4,22,0.00
2013-1-13,65,57,38,61,54,36,98,90,72,0.00,40.00,21,9,35,1.10
2013-1-14,38,28,25,36,22,19,93,78,70,0.00,40.00,12,6,19,2.24
2013-1-15,33,29,24,23,21,19,87,73,61,0.00,40.00,10,5,17,0.00
2013-1-16,36,32,30,29,26,23,91,77,62,0.00,40.00,10,5,17,0.00
2013-1-17,38,34,25,29,25,15,84,71,62,0.00,40.00,13,4,24,0.00
2013-1-18,35,28,20,24,17,10,80,64,47,0.00,40.00,16,7,24,2.20
2013-1-19,52,42,33,28,25,22,68,50,32,0.00,40.00,22,13,32,0.00
2013-1-20,45,32,23,33,17,11,67,54,35,0.00,40.00,24,10,37,2.24
2013-1-21,24,19,9,17,9,-3,85,65,48,0.00,40.00,19,9,29,1.10
2013-1-22,15,10,6,0,-3,-5,66,55,41,0.00,40.00,14,9,19,1.65
2013-1-23,21,15,9,14,3,-3,89,60,35,0.00,40.00,14,6,19,0.00
2013-1-24,21,17,12,15,9,5,88,70,51,0.00,40.00,14,6,22,6.13
2013-1-25,23,19,16,20,12,3,92,75,50,0.00,40.00,10,5,16,1.10
2013-1-26,28,25,20,22,18,13,87,75,64,0.00,40.00,7,5,14,0.55
2013-1-27,34,25,13,29,17,10,94,72,58,0.00,40.00,8,3,16,2.79
2013-1-28,51,43,31,49,42,30,99,95,88,0.00,40.00,14,8,24,0.00
2013-1-29,65,56,47,56,52,47,100,86,68,0.00,40.00,18,8,31,0.00
2013-1-30,63,55,35,57,50,27,98,83,72,0.00,40.00,22,12,38,3.93
2013-1-31,35,25,18,27,18,9,92,75,56,0.00,40.00,30,13,39,1.10
2013-2-1,18,12,7,13,3,0,82,67,56,0.00,40.00,19,11,29,5.58
2013-2-2,27,20,10,25,16,3,92,83,72,0.00,40.00,13,6,21,0.55
2013-2-3,25,21,18,22,16,9,91,81,63,0.00,40.00,16,5,22,2.20
2013-2-4,29,23,15,28,19,12,97,86,61,0.00,40.00,12,4,17,1.65
2013-2-5,33,28,24,29,24,20,96,84,70,0.00,40.00,9,3,15,0.00
2013-2-6,35,31,26,29,21,17,87,68,50,0.00,40.00,10,4,16,0.00
2013-2-7,50,38,25,31,26,18,79,65,46,0.00,40.00,9,4,16,0.00
2013-2-8,43,34,27,39,28,18,95,79,66,0.00,40.00,16,9,27,0.00
2013-2-9,37,28,19,19,18,15,89,66,43,0.00,40.00,7,2,13,0.00
2013-2-10,48,38,27,41,24,18,83,58,38,0.00,40.00,18,6,28,2.24
2013-2-11,52,45,37,48,35,25,95,69,46,0.00,40.00,25,13,40,2.83
2013-2-12,46,37,32,27,25,23,74,61,40,0.00,40.00,19,7,29,0.55
2013-2-13,34,30,28,27,26,24,91,83,71,0.00,40.00,7,4,14,0.00
2013-2-14,47,35,24,37,30,23,96,85,64,0.00,40.00,16,7,25,0.00
2013-2-15,35,31,27,32,27,22,96,85,73,0.00,40.00,11,3,17,7.32
2013-2-16,30,23,17,22,16,7,89,75,56,0.00,40.00,16,5,26,2.20
2013-2-17,25,18,12,12,8,6,81,65,44,0.00,40.00,12,5,16,2.83
2013-2-18,51,34,17,32,19,9,71,55,40,0.00,40.00,21,8,47,3.93
2013-2-19,50,32,20,39,26,13,98,78,47,0.00,40.00,23,14,47,4.49
2013-2-20,22,20,16,16,12,8,84,71,57,0.00,40.00,17,10,24,5.07
2013-2-21,28,23,20,17,15,12,84,71,60,0.00,40.00,11,6,18,0.00
2013-2-22,41,33,26,38,29,16,99,85,66,0.00,40.00,16,6,23,0.00
2013-2-23,40,35,29,32,27,24,90,73,54,0.00,40.00,11,4,15,0.00
2013-2-24,34,30,27,24,21,18,82,68,55,0.00,40.00,12,4,17,2.24
2013-2-25,45,35,24,25,22,20,88,62,40,0.00,40.00,10,3,14,0.55
2013-2-26,42,37,33,41,30,22,99,76,54,0.00,40.00,17,9,25,0.00
2013-2-27,41,36,33,37,33,30,93,88,79,0.00,40.00,19,10,25,0.55
2013-2-28,37,34,31,34,31,28,95,88,80,0.00,40.00,12,8,19,4.99
2013-3-1,33,31,27,29,25,19,84,77,67,0.00,40.00,11,6,17,0.00
2013-3-2,28,27,26,22,20,18,85,77,70,0.00,40.00,10,6,18,1.65
2013-3-3,31,26,23,19,16,12,78,63,48,0.00,40.00,10,5,19,1.10
2013-3-4,40,31,20,18,16,11,82,56,33,0.00,40.00,6,2,12,3.39
2013-3-5,40,35,31,32,26,19,100,72,49,0.00,40.00,15,6,20,8.42
2013-3-6,37,34,30,32,30,27,100,88,77,0.00,40.00,11,7,17,3.30
2013-3-7,41,34,31,30,27,25,84,77,63,0.00,40.00,9,4,12,0.00
2013-3-8,42,35,28,28,26,21,89,70,48,0.00,40.00,9,4,13,5.08
2013-3-9,56,42,28,31,28,24,87,61,36,0.00,40.00,11,4,17,0.00
2013-3-10,67,57,47,35,34,32,60,42,27,0.00,40.00,11,6,17,0.00
2013-3-11,61,51,41,51,43,33,95,75,35,0.00,40.00,18,-6,32,3.93
2013-3-12,41,37,33,34,29,25,87,75,61,0.00,40.00,18,8,22,0.00
2013-3-13,34,30,27,30,23,15,96,74,57,0.00,40.00,19,10,29,0.55
2013-3-14,41,32,24,22,18,16,75,58,39,0.00,40.00,13,6,19,2.24
2013-3-15,49,39,30,42,30,20,96,70,54,0.00,40.00,10,4,16,0.00
2013-3-16,51,42,32,45,39,29,99,91,77,0.00,40.00,13,6,21,1.10
2013-3-17,38,34,31,29,25,21,88,71,57,0.00,40.00,10,6,15,0.00
2013-3-18,50,40,32,49,38,25,99,91,70,0.00,40.00,19,9,29,2.24
2013-3-19,39,35,28,36,22,15,89,60,39,0.00,40.00,25,14,37,0.00
2013-3-20,36,31,23,18,15,10,62,51,41,0.00,40.00,18,11,26,4.48
2013-3-21,30,24,18,20,14,10,88,66,53,0.00,40.00,14,7,22,5.03
2013-3-22,42,31,21,19,17,15,79,56,33,0.00,40.00,12,5,19,6.18
2013-3-23,48,36,27,26,21,18,72,54,33,0.00,40.00,9,3,14,0.00
2013-3-24,37,34,31,31,24,19,98,68,50,0.00,40.00,16,8,21,2.20
2013-3-25,35,32,30,32,30,29,100,94,83,0.00,40.00,12,5,22,0.55
2013-3-26,42,35,32,33,29,19,96,78,40,0.00,40.00,13,7,22,0.55
2013-3-27,43,37,33,29,26,20,86,66,41,0.00,40.00,15,9,22,0.00
2013-3-28,49,39,29,26,24,21,76,56,38,0.00,40.00,11,7,20,2.24
2013-3-29,53,42,31,29,26,24,80,55,35,0.00,40.00,11,4,19,0.00
2013-3-30,57,45,30,31,26,22,85,52,27,0.00,40.00,9,2,14,1.10
2013-3-31,56,48,43,46,36,-100,97,67,37,0.00,40.00,15,5,22,0.00
2013-4-1,49,40,32,41,23,15,78,53,34,0.00,40.00,15,7,23,0.00
2013-4-2,43,34,26,16,15,12,63,46,28,0.00,40.00,14,6,20,0.00
2013-4-3,45,35,25,17,12,9,57,39,24,0.00,40.00,14,5,22,0.55
2013-4-4,54,41,29,21,13,5,51,34,16,0.00,40.00,7,3,16,0.00
2013-4-5,55,46,37,32,23,19,56,40,26,0.00,40.00,14,5,22,0.00
2013-4-6,60,47,34,23,17,11,59,33,19,0.00,40.00,11,6,21,0.00
2013-4-7,73,63,54,44,37,22,54,38,27,0.00,40.00,19,10,29,0.00
2013-4-8,72,63,55,53,49,37,83,61,43,0.00,40.00,17,7,29,0.00
2013-4-9,82,69,56,57,53,51,85,60,38,0.00,40.00,21,8,32,0.00
2013-4-10,82,70,60,64,58,54,93,68,45,0.00,40.00,19,9,34,4.53
2013-4-11,66,60,51,62,57,49,99,92,77,0.00,40.00,13,4,21,1.10
2013-4-12,58,48,42,58,42,31,99,79,58,0.00,40.00,16,9,27,0.55
2013-4-13,52,44,40,37,34,32,80,67,51,0.00,40.00,17,8,22,0.00
2013-4-14,67,51,38,39,35,32,83,58,34,0.00,40.00,11,4,17,0.00
2013-4-15,69,62,52,52,46,37,67,57,41,0.00,40.00,14,6,22,0.00
2013-4-16,76,63,56,63,56,51,97,78,53,0.00,40.00,16,7,26,2.24
2013-4-17,68,60,53,59,55,51,98,86,70,0.00,40.00,12,5,21,0.00
2013-4-18,84,71,59,62,57,53,93,65,36,0.00,40.00,25,12,40,0.00
2013-4-19,74,52,40,61,41,29,99,67,48,0.00,40.00,24,14,34,1.10
2013-4-20,46,40,35,34,27,22,90,62,39,0.00,40.00,15,8,23,0.00
2013-4-21,54,43,31,26,23,20,75,48,27,0.00,40.00,9,4,16,0.00
2013-4-22,69,54,38,40,32,24,61,43,29,0.00,40.00,12,3,16,0.00
2013-4-23,72,61,48,51,39,30,64,45,33,0.00,40.00,16,6,24,0.00
2013-4-24,64,52,39,56,44,33,98,78,57,0.00,40.00,14,7,25,6.18
2013-4-25,56,45,35,40,33,25,95,66,40,0.00,40.00,16,7,25,0.00
2013-4-26,62,49,35,37,31,28,82,51,28,0.00,40.00,7,2,15,0.00
2013-4-27,72,58,41,47,36,31,76,49,24,0.00,40.00,14,4,19,0.00
2013-4-28,64,58,54,59,53,-100,99,87,62,0.00,40.00,11,5,20,0.55
2013-4-29,66,60,56,58,55,53,98,85,64,0.00,40.00,8,3,12,0.00
2013-4-30,76,64,51,56,53,51,100,71,44,0.00,40.00,10,3,16,0.00
2013-5-1,82,70,59,59,54,51,78,57,36,0.00,40.00,10,4,22,0.00
2013-5-2,75,69,61,55,52,48,67,55,45,0.00,40.00,11,5,20,0.00
2013-5-3,78,69,61,54,45,33,72,46,20,0.00,40.00,14,7,25,0.00
2013-5-4,72,65,58,46,42,36,56,43,33,0.00,40.00,17,8,25,0.00
2013-5-5,72,64,55,43,38,28,65,39,22,0.00,40.00,13,6,19,0.00
2013-5-6,68,62,58,58,47,28,89,59,23,0.00,40.00,7,4,14,0.00
2013-5-7,70,63,57,61,55,53,90,77,56,0.00,40.00,12,4,24,0.00
2013-5-8,72,64,58,55,52,48,82,66,44,0.00,40.00,9,4,14,0.00
2013-5-9,82,69,56,56,52,46,83,57,28,0.00,40.00,10,4,16,0.00
2013-5-10,73,63,60,63,58,-100,98,86,66,0.00,40.00,24,5,39,2.24
2013-5-11,62,54,46,61,48,37,96,83,69,0.00,40.00,12,6,19,0.00
2013-5-12,53,46,40,38,31,-100,86,60,38,0.00,40.00,17,8,25,0.00
2013-5-13,57,48,38,34,29,23,77,49,28,0.00,40.00,11,3,17,0.00
2013-5-14,77,59,43,55,42,33,72,54,35,0.00,40.00,16,6,29,0.00
2013-5-15,88,76,66,59,57,55,72,52,33,0.00,40.00,21,10,33,0.00
2013-5-16,79,68,66,63,37,-100,88,62,31,0.00,40.00,11,4,18,0.00
2013-5-17,82,68,60,64,56,-100,100,77,37,0.00,40.00,14,3,22,2.20
2013-5-18,81,70,62,63,59,55,85,69,47,0.00,40.00,9,3,12,0.00
2013-5-19,81,73,63,67,63,60,92,73,56,0.00,40.00,9,3,15,0.00
2013-5-20,87,77,66,70,66,65,95,72,48,0.00,40.00,14,5,22,0.00
2013-5-21,87,78,70,66,63,57,86,62,37,0.00,40.00,16,7,25,0.00
2013-5-22,81,73,64,65,61,59,91,68,48,0.00,40.00,17,8,29,0.55
2013-5-23,73,63,49,64,57,45,95,81,50,0.00,40.00,18,8,27,0.55
2013-5-24,59,51,43,45,38,35,88,62,40,0.00,40.00,15,8,26,0.00
2013-5-25,65,54,41,42,39,34,90,59,39,0.00,40.00,8,3,15,0.00
2013-5-26,69,58,45,41,34,28,76,43,22,0.00,40.00,8,2,14,0.00
2013-5-27,70,60,52,51,44,34,92,58,41,0.00,40.00,14,5,22,0.00
2013-5-28,84,74,64,64,59,51,84,60,41,0.00,40.00,17,7,27,0.00
2013-5-29,88,78,70,61,58,51,66,51,28,0.00,40.00,17,8,25,0.00
2013-5-30,89,79,68,65,63,59,83,58,37,0.00,40.00,13,6,22,0.00
2013-5-31,86,75,68,71,64,62,95,70,46,0.00,40.00,19,7,38,0.00
2013-6-1,83,75,67,68,66,64,94,74,54,0.00,40.00,18,9,32,0.00
2013-6-2,78,71,66,68,59,-100,92,69,47,0.00,40.00,15,7,21,0.00
2013-6-3,66,61,57,58,52,47,82,71,54,0.00,40.00,9,5,16,0.00
2013-6-4,77,64,48,48,43,38,81,50,31,0.00,40.00,9,3,15,0.00
2013-6-5,83,70,56,57,49,44,68,49,33,0.00,40.00,8,3,12,0.00
2013-6-6,70,64,58,64,61,55,98,90,59,0.00,40.00,10,4,16,1.10
2013-6-7,67,60,56,57,54,52,95,82,64,0.00,40.00,11,6,18,0.00
2013-6-8,75,66,55,57,54,48,95,68,38,0.00,40.00,6,2,11,0.00
2013-6-9,83,74,67,66,60,55,78,62,38,0.00,40.00,12,5,21,0.00
2013-6-10,80,70,66,67,64,59,99,81,51,0.00,40.00,15,7,25,3.38
2013-6-11,85,73,64,64,63,61,92,71,46,0.00,40.00,11,6,18,0.00
2013-6-12,88,80,71,73,68,64,81,69,56,0.00,40.00,13,4,21,0.00
2013-6-13,82,71,65,71,61,52,97,73,44,0.00,40.00,17,7,30,1.10
2013-6-14,76,69,61,58,55,52,85,64,45,0.00,40.00,12,5,19,0.00
2013-6-15,80,70,57,62,57,54,90,64,43,0.00,40.00,7,3,14,0.00
2013-6-16,78,72,68,66,64,62,91,75,62,0.00,40.00,16,7,24,1.69
2013-6-17,87,76,67,70,64,52,94,70,30,0.00,40.00,9,3,16,0.00
2013-6-18,82,74,64,66,63,55,85,70,48,0.00,40.00,14,6,22,0.00
2013-6-19,79,68,57,55,49,41,91,55,27,0.00,40.00,9,4,15,0.00
2013-6-20,84,70,59,54,52,48,74,55,34,0.00,40.00,6,2,11,0.00
2013-6-22,91,84,76,69,66,64,71,57,43,0.00,40.00,12,6,18,0.00
2013-6-23,91,80,69,69,65,60,88,62,39,0.00,40.00,16,4,24,0.00
2013-6-24,87,77,69,69,65,62,83,67,49,0.00,40.00,19,5,25,0.00
2013-6-25,92,82,70,71,69,67,91,67,49,0.00,40.00,14,6,21,0.00
2013-6-26,85,74,67,72,68,66,98,82,60,0.00,40.00,11,5,18,0.55
2013-6-27,85,74,67,70,68,66,98,83,56,0.00,40.00,13,4,21,2.24
2013-6-28,82,73,65,69,64,56,92,73,47,0.00,40.00,12,5,19,0.00
2013-6-29,81,69,62,66,62,60,99,80,53,0.00,40.00,11,3,19,0.00
2013-6-30,79,69,63,67,63,60,98,82,58,0.00,40.00,12,4,21,0.00
2013-7-1,78,69,65,67,64,61,96,83,65,0.00,40.00,11,5,18,0.00
2013-7-2,82,74,67,67,66,64,94,76,57,0.00,40.00,9,4,16,0.00
2013-7-3,83,76,70,70,68,64,94,76,56,0.00,40.00,9,4,19,0.00
2013-7-4,76,72,71,70,69,67,95,88,75,0.00,40.00,10,5,17,0.00
2013-7-5,79,71,67,70,68,65,99,89,66,0.00,40.00,7,4,14,2.24
2013-7-6,83,74,71,74,70,66,97,87,62,0.00,40.00,11,5,22,0.00
2013-7-7,81,72,66,67,65,60,95,79,55,0.00,40.00,11,4,17,0.00
2013-7-8,82,71,66,75,65,-100,97,84,66,0.00,40.00,9,3,16,2.24
2013-7-9,88,78,73,74,72,69,98,84,63,0.00,40.00,15,6,21,1.10
2013-7-10,88,74,67,76,66,-100,98,84,65,0.00,40.00,15,5,22,1.10
2013-7-11,78,71,67,66,62,53,94,73,48,0.00,40.00,12,5,22,0.00
2013-7-12,80,70,60,61,57,55,90,65,46,0.00,40.00,13,5,21,0.00
2013-7-13,86,78,65,66,63,58,87,62,46,0.00,40.00,12,5,17,0.00
2013-7-14,89,81,72,72,69,65,83,67,54,0.00,40.00,10,4,16,0.00
2013-7-15,90,82,75,73,70,68,81,68,50,0.00,40.00,7,2,12,0.00
2013-7-16,94,83,75,76,72,69,88,71,46,0.00,40.00,9,2,15,0.55
2013-7-17,93,83,75,76,73,69,94,73,49,0.00,40.00,7,3,12,0.00
2013-7-18,93,85,76,74,72,70,83,65,50,0.00,40.00,11,3,16,0.00
2013-7-19,89,82,77,75,72,69,83,72,58,0.00,40.00,11,6,19,0.00
2013-7-20,81,75,69,73,68,-100,94,82,69,0.00,40.00,7,4,14,0.00
2013-7-21,85,77,70,71,68,64,95,75,51,0.00,40.00,6,2,9,0.00
2013-7-22,79,74,69,71,70,68,98,86,72,0.00,40.00,6,2,11,0.00
2013-7-23,86,76,68,73,69,65,99,79,56,0.00,40.00,13,6,21,0.00
2013-7-24,73,68,63,67,57,53,86,68,49,0.00,40.00,11,6,19,0.00
2013-7-25,78,66,55,55,52,48,89,64,38,0.00,40.00,10,4,17,0.00
2013-7-26,81,70,60,61,57,54,88,66,43,0.00,40.00,9,3,15,0.00
2013-7-27,75,69,64,66,63,59,97,82,59,0.00,40.00,12,5,22,1.10
2013-7-28,71,64,56,59,53,46,94,68,45,0.00,40.00,14,5,19,0.00
2013-7-29,76,65,59,57,53,50,80,66,45,0.00,40.00,10,4,19,0.00
2013-7-30,79,69,60,60,58,56,90,68,46,0.00,40.00,7,2,10,0.00
2013-7-31,74,71,66,67,63,60,97,78,63,0.00,40.00,10,4,16,0.55
2013-8-1,80,73,67,67,64,59,98,75,49,0.00,40.00,11,4,16,0.00
2013-8-2,79,72,62,64,60,53,87,67,44,0.00,40.00,10,4,21,0.00
2013-8-3,80,73,66,67,63,57,97,72,49,0.00,40.00,10,3,15,0.00
2013-8-4,75,68,61,60,56,52,88,65,46,0.00,40.00,11,5,19,0.00
2013-8-5,76,67,58,58,55,53,94,68,45,0.00,40.00,6,2,10,0.00
2013-8-6,82,73,66,63,59,56,76,62,45,0.00,40.00,9,4,17,0.00
2013-8-7,86,77,69,73,68,63,86,75,61,0.00,40.00,9,4,15,0.00
2013-8-8,85,75,71,74,72,69,99,89,64,0.00,40.00,9,3,13,1.10
2013-8-9,79,73,66,71,66,60,99,82,55,0.00,40.00,9,2,13,0.55
2013-8-10,83,77,68,66,64,62,90,67,50,0.00,40.00,7,2,14,0.00
2013-8-11,84,75,67,69,66,62,96,73,56,0.00,40.00,8,2,14,0.00
2013-8-21,83,74,67,69,64,60,88,72,56,0.00,40.00,9,3,14,1.69
2013-8-22,84,74,66,69,66,63,93,78,57,0.00,40.00,12,5,22,0.00
2013-8-23,84,75,69,68,63,58,94,70,44,0.00,40.00,12,5,16,0.00
2013-8-24,84,72,59,60,57,55,85,60,38,0.00,40.00,6,2,9,0.00
2013-8-25,85,72,63,62,55,-100,85,59,36,0.00,40.00,9,2,14,0.00
2013-8-26,88,78,65,68,64,60,84,64,45,0.00,40.00,10,5,15,0.00
2013-8-27,83,76,71,71,69,67,89,80,67,0.00,40.00,7,3,12,0.00
2013-8-28,87,83,75,73,72,71,87,70,60,0.00,40.00,11,7,17,0.00
2013-8-29,86,76,70,70,69,66,96,78,51,0.00,40.00,6,3,9,0.00
2013-8-30,88,78,68,69,67,66,94,72,48,0.00,40.00,9,3,16,0.00
2013-9-26,78,65,51,54,49,41,94,61,25,0.00,40.00,9,3,12,0.00
2013-9-27,77,63,50,53,50,46,88,64,36,0.00,40.00,7,2,13,0.00
2013-9-28,79,67,54,56,52,50,90,62,38,0.00,40.00,8,3,13,0.00
2013-9-29,74,63,57,60,54,-100,92,77,55,0.00,40.00,10,4,14,0.00
2013-9-30,74,66,62,60,59,58,90,79,59,0.00,40.00,9,5,15,0.00
2013-10-1,70,67,64,60,60,59,86,77,68,0.00,40.00,3,3,6,0.00
2013-10-2,83,71,62,66,62,59,91,76,52,0.00,40.00,6,2,9,0.00
2013-10-3,78,72,68,69,66,64,95,83,67,0.00,40.00,10,3,14,0.00
2013-10-4,83,70,65,69,66,64,96,86,55,0.00,40.00,7,2,14,0.00
2013-10-5,82,73,67,71,67,64,95,82,58,0.00,40.00,12,4,18,0.00
2013-10-6,77,67,53,68,64,51,99,89,64,0.00,40.00,14,7,24,4.40
2013-10-7,61,53,47,53,45,40,98,76,50,0.00,40.00,14,6,22,1.10
2013-10-8,68,55,44,47,44,41,95,72,37,0.00,40.00,8,2,12,0.00
2013-10-9,71,60,48,47,45,43,89,60,37,0.00,40.00,6,3,10,0.00
2013-10-10,74,58,47,52,45,40,88,64,30,0.00,40.00,4,1,8,0.55
2013-10-11,77,63,51,52,47,44,83,58,32,0.00,40.00,6,2,9,0.00
2013-10-12,73,64,55,59,55,48,89,73,57,0.00,40.00,6,2,9,0.00
2013-10-13,66,61,56,59,55,-100,94,82,70,0.00,40.00,10,4,17,0.00
2013-10-14,71,58,49,53,48,43,94,70,45,0.00,40.00,7,4,12,0.00
2013-10-15,69,60,50,62,56,47,93,85,77,0.00,40.00,9,3,14,0.00
2013-10-16,67,63,52,63,59,46,97,85,65,0.00,40.00,9,4,17,1.10
2013-10-17,54,50,44,49,45,42,95,84,75,0.00,40.00,11,3,19,0.55
2013-10-18,64,52,44,47,42,40,94,72,42,0.00,40.00,11,6,19,0.00
2013-10-19,51,46,42,44,42,38,96,83,71,0.00,40.00,12,4,20,1.10
2013-10-20,62,48,38,41,37,-100,92,69,44,0.00,40.00,13,6,19,0.00
2013-10-21,67,52,42,49,39,37,92,66,35,0.00,40.00,15,6,25,0.00
2013-10-22,52,44,35,48,30,24,94,60,34,0.00,40.00,10,5,17,0.00
2013-10-23,46,40,33,38,35,31,100,85,55,0.00,40.00,17,5,24,4.49
2013-10-24,44,38,34,34,31,25,89,75,49,0.00,40.00,11,6,17,0.00
2013-10-25,48,39,30,32,27,25,89,65,42,0.00,40.00,11,6,16,3.39
2013-10-26,47,41,33,35,29,26,75,62,44,0.00,40.00,15,7,25,1.10
2013-10-27,56,44,34,36,31,-100,93,66,36,0.00,40.00,7,2,13,1.10
2013-10-28,60,46,33,37,31,-100,90,63,34,0.00,40.00,4,1,8,0.00
2013-10-29,58,48,37,41,38,35,97,71,42,0.00,40.00,3,1,6,0.00
2013-10-30,64,56,50,59,49,39,98,77,62,0.00,40.00,7,3,12,0.00
2013-10-31,66,61,59,62,58,55,98,90,69,0.00,40.00,17,10,27,0.55
2013-11-1,63,56,50,62,48,43,98,75,53,0.00,40.00,22,-12,35,0.55
2013-11-2,52,50,49,41,39,39,73,66,61,0.00,40.00,12,-228,17,0.00
2013-11-3,49,47,44,35,35,33,71,61,58,0.00,40.00,6,3,7,0.00
2013-11-4,55,49,42,35,31,27,60,49,44,0.00,40.00,9,-155,15,0.00
2013-11-5,60,58,56,41,40,40,54,52,49,0.00,40.00,9,6,0,0.00
2013-11-6,65,61,57,51,46,40,60,56,52,0.00,40.00,6,-552,0,0.00
2013-11-7,47,45,42,33,28,25,70,50,44,0.00,40.00,11,-229,18,0.00
2013-11-8,45,41,35,33,30,27,82,64,50,0.00,40.00,10,4,16,0.00
2013-11-9,59,54,39,35,32,27,66,43,38,0.00,40.00,17,11,30,0.00
2013-11-10,47,44,40,29,28,27,58,52,47,0.00,40.00,13,8,22,0.00
2013-11-11,47,47,46,32,32,31,57,56,55,0.00,40.00,9,8,15,0.00
2013-11-12,32,30,25,23,20,19,76,69,63,0.00,40.00,12,8,19,4.48
2013-11-13,38,34,25,20,17,15,78,52,41,0.00,40.00,9,7,16,7.28
2013-11-14,52,46,30,24,21,19,69,38,27,0.00,40.00,13,8,21,0.00
2013-11-15,51,48,42,26,24,23,48,40,34,0.00,40.00,13,8,19,0.00
2013-11-17,55,55,55,40,40,40,58,58,58,0.00,40.00,0,-999,0,0.00
2013-11-18,49,46,40,40,34,29,78,65,45,0.00,40.00,23,-148,31,0.00
2013-11-19,42,40,38,25,24,23,57,52,49,0.00,40.00,6,4,14,0.00
2013-11-20,49,44,33,28,26,23,66,51,44,0.00,40.00,10,6,17,0.00
2013-12-8,30,24,19,30,20,13,99,84,71,0.00,40.00,9,5,14,0.00
2013-12-9,33,30,25,33,26,18,100,83,73,0.00,40.00,12,7,17,0.00
2013-12-10,26,22,18,20,14,10,95,74,57,0.00,40.00,12,6,24,5.54
2013-12-11,31,20,13,20,14,9,84,75,59,0.00,40.00,11,5,19,0.00
2013-12-12,19,15,9,8,4,0,81,62,42,0.00,40.00,12,6,19,9.57
2013-12-13,32,26,17,28,14,4,94,61,52,0.00,40.00,7,3,13,5.63
2013-12-14,36,33,30,36,31,-100,100,98,97,0.00,40.00,9,4,14,5.54